TimeCDT,TemperatureF,Dew PointF,Humidity,Sea Level PressureIn,VisibilityMPH,Wind Direction,Wind SpeedMPH,Gust SpeedMPH,PrecipitationIn,Events,Conditions,WindDirDegrees,DateUTC
12:13 AM,51.8,48.2,88,29.73,10.0,SW,8.1,-,N/A,,Mostly Cloudy,230,2012-04-14 05:13:00
12:33 AM,50.0,48.2,94,29.73,10.0,SW,6.9,-,N/A,,Scattered Clouds,220,2012-04-14 05:33:00
12:53 AM,48.2,46.4,93,29.74,10.0,SW,8.1,-,N/A,,Clear,220,2012-04-14 05:53:00
1:13 AM,48.2,46.4,93,29.74,10.0,WSW,6.9,-,N/A,,Clear,240,2012-04-14 06:13:00
1:33 AM,48.2,44.6,87,29.75,10.0,SW,4.6,-,N/A,,Clear,230,2012-04-14 06:33:00
1:53 AM,48.2,46.4,93,29.76,10.0,SW,3.5,-,N/A,,Clear,220,2012-04-14 06:53:00
2:13 AM,46.4,46.4,100,29.76,10.0,SSW,3.5,-,N/A,,Clear,200,2012-04-14 07:13:00
2:33 AM,48.2,46.4,93,29.76,10.0,Calm,Calm,-,N/A,,Clear,0,2012-04-14 07:33:00
2:53 AM,46.4,46.4,100,29.77,10.0,Calm,Calm,-,N/A,,Clear,0,2012-04-14 07:53:00
3:13 AM,46.4,46.4,100,29.77,7.0,Calm,Calm,-,N/A,,Clear,0,2012-04-14 08:13:00
3:33 AM,46.4,46.4,100,29.77,7.0,Calm,Calm,-,N/A,,Clear,0,2012-04-14 08:33:00
3:53 AM,44.6,44.6,100,29.76,5.0,Calm,Calm,-,N/A,,Clear,0,2012-04-14 08:53:00
4:13 AM,44.6,44.6,100,29.77,5.0,Calm,Calm,-,N/A,,Clear,0,2012-04-14 09:13:00
4:33 AM,44.6,44.6,100,29.76,7.0,Calm,Calm,-,N/A,,Clear,0,2012-04-14 09:33:00
4:53 AM,44.6,44.6,100,29.76,7.0,Calm,Calm,-,N/A,,Clear,0,2012-04-14 09:53:00
5:13 AM,44.6,44.6,100,29.76,7.0,Calm,Calm,-,N/A,,Clear,0,2012-04-14 10:13:00
5:32 AM,44.6,44.6,100,29.77,7.0,Calm,Calm,-,N/A,,Clear,0,2012-04-14 10:32:00
5:53 AM,44.6,44.6,100,29.77,7.0,Calm,Calm,-,N/A,,Clear,0,2012-04-14 10:53:00
6:13 AM,44.6,44.6,100,29.76,7.0,Calm,Calm,-,N/A,,Clear,0,2012-04-14 11:13:00
6:32 AM,44.6,44.6,100,29.76,7.0,Calm,Calm,-,N/A,,Clear,0,2012-04-14 11:32:00
6:53 AM,44.6,44.6,100,29.76,10.0,SSW,5.8,-,N/A,,Clear,200,2012-04-14 11:53:00
7:13 AM,44.6,44.6,100,29.77,10.0,South,4.6,-,N/A,,Clear,180,2012-04-14 12:13:00
7:32 AM,46.4,44.6,93,29.78,10.0,SSW,5.8,-,N/A,,Clear,200,2012-04-14 12:32:00
7:53 AM,46.4,44.6,93,29.78,10.0,SW,4.6,-,N/A,,Clear,230,2012-04-14 12:53:00
8:13 AM,48.2,46.4,93,29.79,10.0,WSW,4.6,-,N/A,,Clear,240,2012-04-14 13:13:00
8:32 AM,51.8,46.4,82,29.78,10.0,WSW,6.9,-,N/A,,Clear,250,2012-04-14 13:32:00
8:52 AM,53.6,48.2,82,29.78,10.0,West,5.8,-,N/A,,Clear,280,2012-04-14 13:52:00
9:13 AM,55.4,48.2,77,29.78,10.0,WNW,5.8,-,N/A,,Clear,290,2012-04-14 14:13:00
9:32 AM,55.4,48.2,77,29.79,10.0,West,5.8,-,N/A,,Clear,280,2012-04-14 14:32:00
9:53 AM,57.2,48.2,72,29.79,10.0,West,5.8,-,N/A,,Clear,280,2012-04-14 14:53:00
10:13 AM,59.0,48.2,67,29.79,10.0,West,4.6,-,N/A,,Clear,280,2012-04-14 15:13:00
10:32 AM,60.8,46.4,59,29.79,10.0,West,3.5,-,N/A,,Clear,260,2012-04-14 15:32:00
10:53 AM,62.6,46.4,55,29.80,10.0,West,6.9,-,N/A,,Clear,280,2012-04-14 15:53:00
11:13 AM,62.6,44.6,52,29.80,10.0,West,4.6,-,N/A,,Clear,260,2012-04-14 16:13:00
11:32 AM,64.4,46.4,52,29.80,10.0,SW,3.5,-,N/A,,Clear,230,2012-04-14 16:32:00
11:53 AM,66.2,46.4,49,29.80,10.0,WSW,4.6,-,N/A,,Clear,240,2012-04-14 16:53:00
12:13 PM,68.0,44.6,43,29.79,10.0,SW,3.5,-,N/A,,Clear,220,2012-04-14 17:13:00
12:32 PM,69.8,41.0,35,29.77,10.0,SW,4.6,-,N/A,,Clear,230,2012-04-14 17:32:00
12:53 PM,69.8,39.2,33,29.76,10.0,SW,4.6,-,N/A,,Clear,220,2012-04-14 17:53:00
1:13 PM,69.8,39.2,33,29.76,10.0,Calm,Calm,-,N/A,,Clear,0,2012-04-14 18:13:00
1:53 PM,71.6,35.6,27,29.76,10.0,West,5.8,-,N/A,,Clear,270,2012-04-14 18:53:00
2:13 PM,71.6,33.8,25,29.75,10.0,SW,4.6,-,N/A,,Clear,230,2012-04-14 19:13:00
2:33 PM,71.6,33.8,25,29.74,10.0,WSW,3.5,-,N/A,,Clear,250,2012-04-14 19:33:00
2:53 PM,71.6,32.0,23,29.72,10.0,WSW,3.5,-,N/A,,Clear,250,2012-04-14 19:53:00
3:13 PM,71.6,32.0,23,29.72,10.0,West,4.6,-,N/A,,Clear,260,2012-04-14 20:13:00
3:33 PM,71.6,33.8,25,29.71,10.0,SW,4.6,-,N/A,,Clear,230,2012-04-14 20:33:00
3:53 PM,71.6,33.8,25,29.71,10.0,Calm,Calm,-,N/A,,Clear,0,2012-04-14 20:53:00
4:13 PM,73.4,33.8,23,29.69,10.0,Calm,Calm,-,N/A,,Clear,0,2012-04-14 21:13:00
4:33 PM,71.6,33.8,25,29.70,10.0,WSW,5.8,-,N/A,,Clear,240,2012-04-14 21:33:00
4:53 PM,71.6,35.6,27,29.70,10.0,SE,6.9,-,N/A,,Scattered Clouds,130,2012-04-14 21:53:00
5:13 PM,71.6,37.4,29,29.70,10.0,SSE,4.6,-,N/A,,Scattered Clouds,160,2012-04-14 22:13:00
5:33 PM,71.6,39.2,31,29.69,10.0,South,5.8,-,N/A,,Scattered Clouds,170,2012-04-14 22:33:00
5:53 PM,69.8,42.8,38,29.69,10.0,SSE,9.2,-,N/A,,Scattered Clouds,160,2012-04-14 22:53:00
6:13 PM,68.0,39.2,35,29.69,10.0,SSE,5.8,-,N/A,,Scattered Clouds,150,2012-04-14 23:13:00
6:33 PM,66.2,39.2,37,29.69,10.0,SSE,10.4,16.1,N/A,,Scattered Clouds,160,2012-04-14 23:33:00
6:53 PM,66.2,44.6,46,29.68,10.0,SSE,5.8,-,N/A,,Clear,150,2012-04-14 23:53:00
7:13 PM,66.2,46.4,49,29.69,10.0,SSE,6.9,-,N/A,,Clear,150,2012-04-15 00:13:00
7:33 PM,64.4,46.4,52,29.68,10.0,SE,5.8,-,N/A,,Clear,140,2012-04-15 00:33:00
7:53 PM,62.6,48.2,59,29.68,10.0,SE,4.6,-,N/A,,Clear,140,2012-04-15 00:53:00
8:13 PM,62.6,50.0,63,29.66,10.0,ESE,8.1,-,N/A,,Clear,120,2012-04-15 01:13:00
8:33 PM,62.6,51.8,68,29.64,10.0,ESE,11.5,-,N/A,,Clear,110,2012-04-15 01:33:00
8:53 PM,62.6,51.8,68,29.65,10.0,ESE,6.9,-,N/A,,Clear,110,2012-04-15 01:53:00
9:12 PM,60.8,51.8,72,29.64,10.0,East,8.1,-,N/A,,Clear,100,2012-04-15 02:12:00
9:33 PM,60.8,51.8,72,29.63,10.0,East,6.9,-,N/A,,Clear,90,2012-04-15 02:33:00
9:53 PM,60.8,51.8,72,29.63,10.0,East,6.9,-,N/A,,Mostly Cloudy,100,2012-04-15 02:53:00
10:13 PM,60.8,51.8,72,29.62,10.0,ESE,8.1,-,N/A,,Overcast,110,2012-04-15 03:13:00
10:33 PM,60.8,51.8,72,29.62,10.0,ESE,9.2,-,N/A,,Mostly Cloudy,110,2012-04-15 03:33:00
10:53 PM,60.8,51.8,72,29.61,10.0,East,6.9,-,N/A,,Scattered Clouds,100,2012-04-15 03:53:00
11:33 PM,59.0,51.8,77,29.59,10.0,East,6.9,-,N/A,,Overcast,80,2012-04-15 04:33:00
11:53 PM,59.0,51.8,77,29.58,10.0,East,8.1,-,N/A,,Overcast,90,2012-04-15 04:53:00